Location: Lombard
(41.8800°N, 88.0080°W)
Time: 01:58:28
(UTC-05:00)

DX 1 - Visible Passes

Search period start: 10 June 2023 00:00
Search period end: 20 June 2023 00:00
Orbit: 615 x 625 km, 98.4° (Epoch: 09 June)

Date Brightness Start Highest point End Pass type
(mag) Time Alt. Az. Time Alt. Az. Time Alt. Az.
10 Jun ? 22:25:34 10° NE 22:28:15 16° E 22:28:15 16° E visible
11 Jun ? 00:00:28 10° N 00:04:37 44° WNW 00:05:25 39° WSW visible
11 Jun ? 22:42:07 10° NE 22:45:41 25° E 22:45:41 25° E visible
12 Jun ? 00:17:57 10° N 00:21:44 30° WNW 00:22:51 26° W visible
12 Jun ? 22:58:58 10° NNE 23:03:00 37° E 23:03:07 37° ESE visible
13 Jun ? 00:35:36 10° NNW 00:38:48 21° WNW 00:40:17 17° W visible
13 Jun ? 23:15:59 10° NNE 23:20:17 58° ESE 23:20:33 56° ESE visible
14 Jun ? 00:53:33 10° NNW 00:55:51 14° WNW 00:57:42 11° W visible
14 Jun ? 23:33:08 10° NNE 23:37:30 89° E 23:37:58 71° SSW visible
15 Jun ? 22:16:25 10° ENE 22:18:13 12° E 22:18:13 12° E visible
15 Jun ? 23:50:24 10° N 23:54:40 59° WNW 23:55:23 51° WSW visible
16 Jun ? 22:32:32 10° NE 22:35:37 19° E 22:35:37 19° E visible
17 Jun ? 00:07:46 10° N 00:11:48 38° WNW 00:12:47 33° WSW visible
17 Jun ? 22:49:11 10° NE 22:52:57 28° E 22:53:02 28° E visible
18 Jun ? 00:25:17 10° N 00:28:53 26° WNW 00:30:11 22° W visible
18 Jun ? 23:06:05 10° NNE 23:10:13 43° E 23:10:26 42° ESE visible
19 Jun ? 00:43:00 10° NNW 00:45:56 18° WNW 00:47:35 15° W visible
19 Jun ? 23:23:08 10° NNE 23:27:28 67° ESE 23:27:49 63° SE visible
